Location: Gallinara
(44.0333°N, 8.2333°E)
Time: 01:27:44
(UTC+00:00)

Cosmos 1484 Rocket - Pass Details

Date: 25 September 2020
Orbit: 506 x 559 km, 97.4° (Epoch: 31 October)

Event Time Altitude Azimuth Distance (km) Brightness Sun altitude
Rises 04:27:37 0° 8° (N) 2,748 6.6 -9.9°
Reaches altitude 10° 04:29:46 10° 4° (N) 1,852 5.7 -9.5°
Maximum altitude 04:33:42 56° 286° (WNW) 667 2.9 -8.8°
Drops below altitude 10° 04:37:37 10° 208° (SSW) 1,841 5.2 -8.1°
Sets 04:39:46 0° 204° (SSW) 2,730 6.1 -7.7°
